Location: Wayah Bald
(35.1806°N, 83.5603°W)
Time: 06:15:25
(UTC-04:00)

Meteor 1-27 Rocket - Visible Passes

Search period start: 21 April 2014 00:00
Search period end: 01 May 2014 00:00
Orbit: 832 x 909 km, 81.3° (Epoch: 20 April)

Date Brightness Start Highest point End Pass type
(mag) Time Alt. Az. Time Alt. Az. Time Alt. Az.
21 Apr 5.3 21:36:28 17° ENE 21:36:28 17° ENE 21:39:19 10° NE visible
21 Apr 4.4 23:18:50 49° WNW 23:18:50 49° WNW 23:24:04 10° N visible
22 Apr 5.1 21:29:38 18° E 21:29:40 18° E 21:33:22 10° NE visible
22 Apr 4.4 23:12:00 46° W 23:12:30 47° WNW 23:17:59 10° N visible
23 Apr 5.0 21:22:42 18° E 21:23:34 19° E 21:27:23 10° NE visible
23 Apr 4.6 23:05:04 39° WSW 23:06:26 46° WNW 23:11:54 10° N visible
24 Apr 5.0 21:15:39 17° ESE 21:17:28 20° E 21:21:25 10° NE visible
24 Apr 4.7 22:58:00 29° SW 23:00:22 44° WNW 23:05:49 10° N visible
25 Apr 5.0 21:08:26 14° SE 21:11:23 20° E 21:15:26 10° NE visible
25 Apr 4.8 22:50:46 20° SW 22:54:18 43° WNW 22:59:44 10° N visible
26 Apr 4.9 21:01:11 10° SE 21:05:17 21° E 21:09:27 10° NE visible
26 Apr 4.8 22:43:18 12° SW 22:48:14 41° WNW 22:53:38 10° N visible
27 Apr 4.9 20:55:00 10° SE 20:59:12 22° E 21:03:28 10° NE visible
27 Apr 4.9 22:36:57 10° SW 22:42:11 40° WNW 22:47:33 10° N visible
28 Apr 4.9 20:48:49 10° SE 20:53:07 23° E 20:57:29 10° NE visible
28 Apr 5.0 22:30:55 10° SW 22:36:07 38° WNW 22:41:28 10° N visible
29 Apr 4.8 20:42:38 10° SE 20:47:01 24° E 20:51:29 10° NE visible
29 Apr 5.1 22:24:53 10° SW 22:30:03 37° WNW 22:35:22 10° N visible
30 Apr 5.2 22:18:51 10° SW 22:24:00 36° WNW 22:29:17 10° N visible
